STARLINK-2231 (48577 NORAD) Tracking and Keplerian Element Data

This shows tracking and keplerian element data for the satellite.

Feedback or suggestion? Click here.




ElementValue
Catalog48577
NameSTARLINK-2231
Epoch Orbit2348
Epoch Day288.00355584
Epoch Year2021
RAAN144.3191
Inclination53.0513
Eccentricity0.0001903
Argument of Perigee73.316
Mean Anonmoly286.8038
Mean Motion15.06386698
Decay Rate-3.052E-05
L11 48577U 21041AA 21288.00355584 -.00003052 00000-0 -18611-3 0 9992
L22 48577 53.0513 144.3191 0001903 73.3160 286.8038 15.06386698 23480

Live tracking and technical data element details for STARLINK-2231 (NORAD 48577). STARLINK-2231 can be tracked NOW for your location showing map with azimuth and elevation plus other details from your city location.

Track the satellite on the map from your city or location and see movement details for azimuth, elevation, latitude, longitude, range, height, and movement on the map or in text.







IsCatalogInMostPopularTable: catalog: 48577, numindb: 39
Update: records affected: 1



GetName: 48577 STARLINK-2231

Hit Count: updated at: Tue, 19 Oct 2021 09:14:56 GMT